iso_date,epoch_date,Year,Hour,Min,DOY,POS_DOY,Lat,Lon,BP,Ts,Ta,has_bp,has_ts,has_ta,BuoyID,Buoy_Type,Buoy_Owner,Logistics,Hemisphere
2018-01-29T15:50:24Z,1517241024,2018,15,50,29.66,29.66,-72.4256,-116.3446,979.2,-1.36,-999.0,yes,yes,no,300234063898680,BD2GI,AOML,ARAON,South
2018-01-29T16:00:28Z,1517241629,2018,16,0,29.667,29.667,-72.4254,-116.3446,979.4,-1.36,-999.0,yes,yes,no,300234063898680,BD2GI,AOML,ARAON,South
2018-01-29T16:59:31Z,1517245171,2018,17,0,29.708,29.708,-72.4212,-116.347,979.0,-1.36,-999.0,yes,yes,no,300234063898680,BD2GI,AOML,ARAON,South
2018-01-29T18:00:00Z,1517248800,2018,18,0,29.75,29.75,-72.4168,-116.3552,978.8,-1.33,-999.0,yes,yes,no,300234063898680,BD2GI,AOML,ARAON,South
2018-01-29T19:00:28Z,1517252429,2018,19,0,29.792,29.792,-72.4118,-116.367,978.6,-1.26,-999.0,yes,yes,no,300234063898680,BD2GI,AOML,ARAON,South
2018-01-29T19:59:31Z,1517255971,2018,20,0,29.833,29.833,-72.409,-116.446,978.5,-1.26,-999.0,yes,yes,no,300234063898680,BD2GI,AOML,ARAON,South
2018-01-29T21:00:00Z,1517259600,2018,21,0,29.875,29.875,-72.4042,-116.4084,978.8,-1.19,-999.0,yes,yes,no,300234063898680,BD2GI,AOML,ARAON,South
2018-01-29T22:00:28Z,1517263229,2018,22,0,29.917,29.917,-72.4028,-116.4326,979.0,-1.12,-999.0,yes,yes,no,300234063898680,BD2GI,AOML,ARAON,South
2018-01-29T22:59:31Z,1517266771,2018,23,0,29.958,29.958,-72.403,-116.4578,978.8,-1.16,-999.0,yes,yes,no,300234063898680,BD2GI,AOML,ARAON,South
2018-01-30T00:00:00Z,1517270400,2018,0,0,30.0,30.0,-72.4038,-116.48,979.2,-1.16,-999.0,yes,yes,no,300234063898680,BD2GI,AOML,ARAON,South
2018-01-30T01:00:28Z,1517274029,2018,1,0,30.042,30.042,-72.4054,-116.4972,978.9,-1.16,-999.0,yes,yes,no,300234063898680,BD2GI,AOML,ARAON,South
2018-01-30T01:59:31Z,1517277571,2018,2,0,30.083,30.083,-72.4072,-116.5068,979.1,-1.5,-999.0,yes,yes,no,300234063898680,BD2GI,AOML,ARAON,South
2018-01-30T03:00:00Z,1517281200,2018,3,0,30.125,30.125,-72.4092,-116.5108,978.8,-1.06,-999.0,yes,yes,no,300234063898680,BD2GI,AOML,ARAON,South
2018-01-30T04:00:28Z,1517284829,2018,4,0,30.167,30.167,-72.4102,-116.504,978.6,-1.02,-999.0,yes,yes,no,300234063898680,BD2GI,AOML,ARAON,South
2018-01-30T04:59:31Z,1517288371,2018,5,0,30.208,30.208,-72.41,-116.4932,979.1,-1.02,-999.0,yes,yes,no,300234063898680,BD2GI,AOML,ARAON,South
2018-01-30T06:00:00Z,1517292000,2018,6,0,30.25,30.25,-72.4062,-116.4782,979.0,-0.99,-999.0,yes,yes,no,300234063898680,BD2GI,AOML,ARAON,South
2018-01-30T07:00:28Z,1517295629,2018,7,0,30.292,30.292,-72.4016,-116.4708,979.2,-1.02,-999.0,yes,yes,no,300234063898680,BD2GI,AOML,ARAON,South
2018-01-30T07:59:31Z,1517299171,2018,8,0,30.333,30.333,-72.3958,-116.469,979.5,-0.99,-999.0,yes,yes,no,300234063898680,BD2GI,AOML,ARAON,South
2018-01-30T09:00:00Z,1517302800,2018,9,0,30.375,30.375,-72.3902,-116.4754,979.4,-0.99,-999.0,yes,yes,no,300234063898680,BD2GI,AOML,ARAON,South
2018-01-30T10:00:28Z,1517306429,2018,10,0,30.417,30.417,-72.3842,-116.4856,979.6,-0.99,-999.0,yes,yes,no,300234063898680,BD2GI,AOML,ARAON,South
2018-01-30T10:59:31Z,1517309971,2018,11,0,30.458,30.458,-72.38,-116.4994,980.0,-1.09,-999.0,yes,yes,no,300234063898680,BD2GI,AOML,ARAON,South
2018-01-30T12:00:00Z,1517313600,2018,12,0,30.5,30.5,-72.3762,-116.5132,980.0,-1.06,-999.0,yes,yes,no,300234063898680,BD2GI,AOML,ARAON,South
2018-01-30T13:00:28Z,1517317229,2018,13,0,30.542,30.542,-72.373,-116.5268,980.1,-1.12,-999.0,yes,yes,no,300234063898680,BD2GI,AOML,ARAON,South
2018-01-30T13:59:31Z,1517320771,2018,14,0,30.583,30.583,-72.3704,-116.5364,980.1,-1.09,-999.0,yes,yes,no,300234063898680,BD2GI,AOML,ARAON,South
2018-01-30T15:00:00Z,1517324400,2018,15,0,30.625,30.625,-72.3684,-116.5436,979.9,-1.12,-999.0,yes,yes,no,300234063898680,BD2GI,AOML,ARAON,South
2018-01-30T16:00:28Z,1517328029,2018,16,0,30.667,30.667,-72.3674,-116.5504,980.1,-1.02,-999.0,yes,yes,no,300234063898680,BD2GI,AOML,ARAON,South
2018-01-30T16:59:31Z,1517331571,2018,17,0,30.708,30.708,-72.3636,-116.559,980.0,-1.06,-999.0,yes,yes,no,300234063898680,BD2GI,AOML,ARAON,South
2018-01-30T18:00:00Z,1517335200,2018,18,0,30.75,30.75,-72.3586,-116.5692,980.2,-1.09,-999.0,yes,yes,no,300234063898680,BD2GI,AOML,ARAON,South
2018-01-30T19:00:28Z,1517338829,2018,19,0,30.792,30.792,-72.3542,-116.5862,980.3,-1.06,-999.0,yes,yes,no,300234063898680,BD2GI,AOML,ARAON,South
2018-01-30T19:59:31Z,1517342371,2018,20,0,30.833,30.833,-72.3492,-116.6054,979.9,-1.02,-999.0,yes,yes,no,300234063898680,BD2GI,AOML,ARAON,South
2018-01-30T21:00:00Z,1517346000,2018,21,0,30.875,30.875,-72.3456,-116.6362,980.1,-0.99,-999.0,yes,yes,no,300234063898680,BD2GI,AOML,ARAON,South
2018-01-30T22:00:28Z,1517349629,2018,22,0,30.917,30.917,-72.3412,-116.6698,979.9,-1.09,-999.0,yes,yes,no,300234063898680,BD2GI,AOML,ARAON,South
2018-01-30T22:59:31Z,1517353171,2018,23,0,30.958,30.958,-72.3388,-116.7014,979.6,-1.06,-999.0,yes,yes,no,300234063898680,BD2GI,AOML,ARAON,South
2018-01-31T00:00:00Z,1517356800,2018,0,0,31.0,31.0,-72.339,-116.7244,979.8,-1.02,-999.0,yes,yes,no,300234063898680,BD2GI,AOML,ARAON,South
2018-01-31T01:00:28Z,1517360429,2018,1,0,31.042,31.042,-72.3412,-116.744,980.0,-1.02,-999.0,yes,yes,no,300234063898680,BD2GI,AOML,ARAON,South
2018-01-31T01:59:31Z,1517363971,2018,2,0,31.083,31.083,-72.3446,-116.7594,979.8,-1.02,-999.0,yes,yes,no,300234063898680,BD2GI,AOML,ARAON,South
2018-01-31T03:00:00Z,1517367600,2018,3,0,31.125,31.125,-72.348,-116.7692,979.5,-1.02,-999.0,yes,yes,no,300234063898680,BD2GI,AOML,ARAON,South
2018-01-31T04:00:28Z,1517371229,2018,4,0,31.167,31.167,-72.3512,-116.7778,979.3,-1.06,-999.0,yes,yes,no,300234063898680,BD2GI,AOML,ARAON,South
2018-01-31T04:59:31Z,1517374771,2018,5,0,31.208,31.208,-72.3514,-116.798,979.4,-1.09,-999.0,yes,yes,no,300234063898680,BD2GI,AOML,ARAON,South
2018-01-31T06:00:00Z,1517378400,2018,6,0,31.25,31.25,-72.3506,-116.815,979.1,-1.12,-999.0,yes,yes,no,300234063898680,BD2GI,AOML,ARAON,South
2018-01-31T07:00:28Z,1517382029,2018,7,0,31.292,31.292,-72.3492,-116.8306,979.1,-1.12,-999.0,yes,yes,no,300234063898680,BD2GI,AOML,ARAON,South
2018-01-31T07:59:31Z,1517385571,2018,8,0,31.333,31.333,-72.3464,-116.8482,979.2,-1.06,-999.0,yes,yes,no,300234063898680,BD2GI,AOML,ARAON,South
2018-01-31T09:00:00Z,1517389200,2018,9,0,31.375,31.375,-72.3428,-116.8694,979.0,-1.19,-999.0,yes,yes,no,300234063898680,BD2GI,AOML,ARAON,South
2018-01-31T10:00:28Z,1517392829,2018,10,0,31.417,31.417,-72.3384,-116.8936,979.0,-1.36,-999.0,yes,yes,no,300234063898680,BD2GI,AOML,ARAON,South
2018-01-31T10:59:31Z,1517396371,2018,11,0,31.458,31.458,-72.3344,-116.923,979.0,-1.43,-999.0,yes,yes,no,300234063898680,BD2GI,AOML,ARAON,South
2018-01-31T12:00:00Z,1517400000,2018,12,0,31.5,31.5,-72.33,-116.9552,979.0,-1.26,-999.0,yes,yes,no,300234063898680,BD2GI,AOML,ARAON,South
2018-01-31T13:00:28Z,1517403629,2018,13,0,31.542,31.542,-72.3276,-116.992,978.9,-1.26,-999.0,yes,yes,no,300234063898680,BD2GI,AOML,ARAON,South
2018-01-31T13:59:31Z,1517407171,2018,14,0,31.583,31.583,-72.3256,-117.023,979.0,-1.4,-999.0,yes,yes,no,300234063898680,BD2GI,AOML,ARAON,South
2018-01-31T15:00:00Z,1517410800,2018,15,0,31.625,31.625,-72.3242,-117.0496,978.9,-1.4,-999.0,yes,yes,no,300234063898680,BD2GI,AOML,ARAON,South
2018-01-31T16:00:28Z,1517414429,2018,16,0,31.667,31.667,-72.3242,-117.0774,979.3,-1.33,-999.0,yes,yes,no,300234063898680,BD2GI,AOML,ARAON,South
2018-01-31T16:59:31Z,1517417971,2018,17,0,31.708,31.708,-72.3246,-117.1046,979.5,-1.33,-999.0,yes,yes,no,300234063898680,BD2GI,AOML,ARAON,South
2018-01-31T18:00:00Z,1517421600,2018,18,0,31.75,31.75,-72.326,-117.1316,979.4,-1.33,-999.0,yes,yes,no,300234063898680,BD2GI,AOML,ARAON,South
2018-01-31T19:00:28Z,1517425229,2018,19,0,31.792,31.792,-72.3288,-117.1592,979.8,-1.4,-999.0,yes,yes,no,300234063898680,BD2GI,AOML,ARAON,South
2018-01-31T19:59:31Z,1517428771,2018,20,0,31.833,31.833,-72.3324,-117.1876,979.7,-1.29,-999.0,yes,yes,no,300234063898680,BD2GI,AOML,ARAON,South
2018-01-31T21:00:00Z,1517432400,2018,21,0,31.875,31.875,-72.3362,-117.2196,979.9,-1.36,-999.0,yes,yes,no,300234063898680,BD2GI,AOML,ARAON,South
2018-01-31T22:00:28Z,1517436029,2018,22,0,31.917,31.917,-72.341,-117.257,980.0,-1.47,-999.0,yes,yes,no,300234063898680,BD2GI,AOML,ARAON,South
2018-01-31T22:59:31Z,1517439571,2018,23,0,31.958,31.958,-72.3454,-117.289,980.5,-1.4,-999.0,yes,yes,no,300234063898680,BD2GI,AOML,ARAON,South
2018-02-01T00:00:00Z,1517443200,2018,0,0,32.0,32.0,-72.3454,-117.289,980.3,-1.29,-999.0,yes,yes,no,300234063898680,BD2GI,AOML,ARAON,South
2018-02-01T01:00:28Z,1517446829,2018,1,0,32.042,32.042,-72.3552,-117.3374,980.7,-1.47,-999.0,yes,yes,no,300234063898680,BD2GI,AOML,ARAON,South
2018-02-01T01:59:31Z,1517450371,2018,2,0,32.083,32.083,-72.3588,-117.366,981.0,-1.4,-999.0,yes,yes,no,300234063898680,BD2GI,AOML,ARAON,South
2018-02-01T03:00:00Z,1517454000,2018,3,0,32.125,32.125,-72.3644,-117.3864,980.7,-1.4,-999.0,yes,yes,no,300234063898680,BD2GI,AOML,ARAON,South
2018-02-01T04:00:28Z,1517457629,2018,4,0,32.167,32.167,-72.369,-117.4078,981.2,-1.64,-999.0,yes,yes,no,300234063898680,BD2GI,AOML,ARAON,South
2018-02-01T04:59:31Z,1517461171,2018,5,0,32.208,32.208,-72.3754,-117.423,981.0,-1.23,-999.0,yes,yes,no,300234063898680,BD2GI,AOML,ARAON,South
2018-02-01T06:00:00Z,1517464800,2018,6,0,32.25,32.25,-72.382,-117.4348,981.5,-1.43,-999.0,yes,yes,no,300234063898680,BD2GI,AOML,ARAON,South
2018-02-01T07:00:28Z,1517468429,2018,7,0,32.292,32.292,-72.3894,-117.4422,981.7,-1.36,-999.0,yes,yes,no,300234063898680,BD2GI,AOML,ARAON,South
2018-02-01T07:59:31Z,1517471971,2018,8,0,32.333,32.333,-72.3962,-117.4428,981.9,-1.5,-999.0,yes,yes,no,300234063898680,BD2GI,AOML,ARAON,South
2018-02-01T09:00:00Z,1517475600,2018,9,0,32.375,32.375,-72.4006,-117.439,981.6,-1.47,-999.0,yes,yes,no,300234063898680,BD2GI,AOML,ARAON,South
2018-02-01T10:00:28Z,1517479229,2018,10,0,32.417,32.417,-72.4034,-117.4326,981.8,-1.43,-999.0,yes,yes,no,300234063898680,BD2GI,AOML,ARAON,South
2018-02-01T10:59:31Z,1517482771,2018,11,0,32.458,32.458,-72.4038,-117.4272,982.2,-1.36,-999.0,yes,yes,no,300234063898680,BD2GI,AOML,ARAON,South
2018-02-01T12:00:00Z,1517486400,2018,12,0,32.5,32.5,-72.403,-117.4224,982.2,-1.29,-999.0,yes,yes,no,300234063898680,BD2GI,AOML,ARAON,South
2018-02-01T13:00:28Z,1517490029,2018,13,0,32.542,32.542,-72.4026,-117.4226,982.4,-1.36,-999.0,yes,yes,no,300234063898680,BD2GI,AOML,ARAON,South
2018-02-01T13:59:31Z,1517493571,2018,14,0,32.583,32.583,-72.4028,-117.4234,982.5,-1.5,-999.0,yes,yes,no,300234063898680,BD2GI,AOML,ARAON,South
2018-02-01T15:00:00Z,1517497200,2018,15,0,32.625,32.625,-72.4038,-117.4284,982.9,-1.36,-999.0,yes,yes,no,300234063898680,BD2GI,AOML,ARAON,South
2018-02-01T16:00:28Z,1517500829,2018,16,0,32.667,32.667,-72.4056,-117.434,983.1,-1.5,-999.0,yes,yes,no,300234063898680,BD2GI,AOML,ARAON,South
2018-02-01T16:59:31Z,1517504371,2018,17,0,32.708,32.708,-72.4082,-117.4424,983.4,-1.53,-999.0,yes,yes,no,300234063898680,BD2GI,AOML,ARAON,South
2018-02-01T18:00:00Z,1517508000,2018,18,0,32.75,32.75,-72.4114,-117.4512,983.5,-1.5,-999.0,yes,yes,no,300234063898680,BD2GI,AOML,ARAON,South
2018-02-01T19:00:28Z,1517511629,2018,19,0,32.792,32.792,-72.416,-117.4588,983.8,-1.5,-999.0,yes,yes,no,300234063898680,BD2GI,AOML,ARAON,South
2018-02-01T19:59:31Z,1517515171,2018,20,0,32.833,32.833,-72.4212,-117.4592,984.1,-1.5,-999.0,yes,yes,no,300234063898680,BD2GI,AOML,ARAON,South
2018-02-01T21:00:00Z,1517518800,2018,21,0,32.875,32.875,-72.427,-117.4544,984.1,-1.5,-999.0,yes,yes,no,300234063898680,BD2GI,AOML,ARAON,South
2018-02-01T22:00:28Z,1517522429,2018,22,0,32.917,32.917,-72.4312,-117.449,984.2,-1.47,-999.0,yes,yes,no,300234063898680,BD2GI,AOML,ARAON,South
2018-02-01T22:59:31Z,1517525971,2018,23,0,32.958,32.958,-72.4342,-117.4492,984.5,-1.47,-999.0,yes,yes,no,300234063898680,BD2GI,AOML,ARAON,South
2018-02-02T00:00:00Z,1517529600,2018,0,0,33.0,33.0,-72.4368,-117.4532,984.8,-1.4,-999.0,yes,yes,no,300234063898680,BD2GI,AOML,ARAON,South
2018-02-02T01:00:28Z,1517533229,2018,1,0,33.042,33.042,-72.438,-117.4586,984.6,-1.43,-999.0,yes,yes,no,300234063898680,BD2GI,AOML,ARAON,South
2018-02-02T01:59:31Z,1517536771,2018,2,0,33.083,33.083,-72.44,-117.4652,984.6,-1.5,-999.0,yes,yes,no,300234063898680,BD2GI,AOML,ARAON,South
2018-02-02T03:00:00Z,1517540400,2018,3,0,33.125,33.125,-72.443,-117.4714,984.6,-1.53,-999.0,yes,yes,no,300234063898680,BD2GI,AOML,ARAON,South
2018-02-02T04:00:28Z,1517544029,2018,4,0,33.167,33.167,-72.4466,-117.4794,984.8,-1.53,-999.0,yes,yes,no,300234063898680,BD2GI,AOML,ARAON,South
2018-02-02T04:59:31Z,1517547571,2018,5,0,33.208,33.208,-72.4508,-117.4856,985.1,-1.57,-999.0,yes,yes,no,300234063898680,BD2GI,AOML,ARAON,South
2018-02-02T06:00:00Z,1517551200,2018,6,0,33.25,33.25,-72.4558,-117.4862,985.0,-1.57,-999.0,yes,yes,no,300234063898680,BD2GI,AOML,ARAON,South
2018-02-02T07:00:28Z,1517554829,2018,7,0,33.292,33.292,-72.4608,-117.482,985.4,-1.6,-999.0,yes,yes,no,300234063898680,BD2GI,AOML,ARAON,South
2018-02-02T07:59:31Z,1517558371,2018,8,0,33.333,33.333,-72.4656,-117.4738,985.5,-1.64,-999.0,yes,yes,no,300234063898680,BD2GI,AOML,ARAON,South
2018-02-02T09:00:00Z,1517562000,2018,9,0,33.375,33.375,-72.4688,-117.4584,985.1,-1.53,-999.0,yes,yes,no,300234063898680,BD2GI,AOML,ARAON,South
2018-02-02T10:00:28Z,1517565629,2018,10,0,33.417,33.417,-72.4704,-117.4444,985.5,-1.5,-999.0,yes,yes,no,300234063898680,BD2GI,AOML,ARAON,South
2018-02-02T10:59:31Z,1517569171,2018,11,0,33.458,33.458,-72.4706,-117.4298,985.6,-1.5,-999.0,yes,yes,no,300234063898680,BD2GI,AOML,ARAON,South
2018-02-02T12:00:00Z,1517572800,2018,12,0,33.5,33.5,-72.469,-117.4164,986.0,-1.5,-999.0,yes,yes,no,300234063898680,BD2GI,AOML,ARAON,South
2018-02-02T13:00:28Z,1517576429,2018,13,0,33.542,33.542,-72.466,-117.4054,986.0,-1.5,-999.0,yes,yes,no,300234063898680,BD2GI,AOML,ARAON,South
2018-02-02T13:59:31Z,1517579971,2018,14,0,33.583,33.583,-72.466,-117.4054,985.7,-1.47,-999.0,yes,yes,no,300234063898680,BD2GI,AOML,ARAON,South
2018-02-02T15:00:00Z,1517583600,2018,15,0,33.625,33.625,-72.4578,-117.404,986.2,-1.47,-999.0,yes,yes,no,300234063898680,BD2GI,AOML,ARAON,South
2018-02-02T16:00:28Z,1517587229,2018,16,0,33.667,33.667,-72.4554,-117.4132,986.5,-1.57,-999.0,yes,yes,no,300234063898680,BD2GI,AOML,ARAON,South
2018-02-02T16:59:31Z,1517590771,2018,17,0,33.708,33.708,-72.4558,-117.4172,986.1,-1.4,-999.0,yes,yes,no,300234063898680,BD2GI,AOML,ARAON,South
2018-02-02T18:00:00Z,1517594400,2018,18,0,33.75,33.75,-72.4566,-117.4308,986.4,-1.5,-999.0,yes,yes,no,300234063898680,BD2GI,AOML,ARAON,South
2018-02-02T19:00:28Z,1517598029,2018,19,0,33.792,33.792,-72.4572,-117.449,986.4,-1.47,-999.0,yes,yes,no,300234063898680,BD2GI,AOML,ARAON,South
2018-02-02T19:59:31Z,1517601571,2018,20,0,33.833,33.833,-72.4582,-117.4556,986.5,-1.43,-999.0,yes,yes,no,300234063898680,BD2GI,AOML,ARAON,South
2018-02-02T21:00:00Z,1517605200,2018,21,0,33.875,33.875,-72.4576,-117.4546,986.0,-1.36,-999.0,yes,yes,no,300234063898680,BD2GI,AOML,ARAON,South
2018-02-02T22:00:28Z,1517608829,2018,22,0,33.917,33.917,-72.4552,-117.4588,986.4,-1.43,-999.0,yes,yes,no,300234063898680,BD2GI,AOML,ARAON,South
2018-02-02T22:59:31Z,1517612371,2018,23,0,33.958,33.958,-72.457,-117.4696,986.6,-1.47,-999.0,yes,yes,no,300234063898680,BD2GI,AOML,ARAON,South
2018-02-03T00:00:00Z,1517616000,2018,0,0,34.0,34.0,-72.46,-117.4798,986.8,-1.53,-999.0,yes,yes,no,300234063898680,BD2GI,AOML,ARAON,South
2018-02-03T01:00:28Z,1517619629,2018,1,0,34.042,34.042,-72.4622,-117.4904,986.2,-1.47,-999.0,yes,yes,no,300234063898680,BD2GI,AOML,ARAON,South
2018-02-03T01:59:31Z,1517623171,2018,2,0,34.083,34.083,-72.465,-117.5088,985.9,-1.4,-999.0,yes,yes,no,300234063898680,BD2GI,AOML,ARAON,South
2018-02-03T03:00:00Z,1517626800,2018,3,0,34.125,34.125,-72.466,-117.521,985.9,-1.5,-999.0,yes,yes,no,300234063898680,BD2GI,AOML,ARAON,South
2018-02-03T04:00:28Z,1517630429,2018,4,0,34.167,34.167,-72.466,-117.521,985.3,-1.5,-999.0,yes,yes,no,300234063898680,BD2GI,AOML,ARAON,South
2018-02-03T04:59:31Z,1517633971,2018,5,0,34.208,34.208,-72.47,-117.534,985.5,-1.57,-999.0,yes,yes,no,300234063898680,BD2GI,AOML,ARAON,South
2018-02-03T06:00:00Z,1517637600,2018,6,0,34.25,34.25,-72.4732,-117.5448,985.3,-1.47,-999.0,yes,yes,no,300234063898680,BD2GI,AOML,ARAON,South
2018-02-03T07:00:28Z,1517641229,2018,7,0,34.292,34.292,-72.4778,-117.5532,985.0,-1.47,-999.0,yes,yes,no,300234063898680,BD2GI,AOML,ARAON,South
2018-02-03T07:59:31Z,1517644771,2018,8,0,34.333,34.333,-72.4838,-117.5586,984.8,-1.47,-999.0,yes,yes,no,300234063898680,BD2GI,AOML,ARAON,South
2018-02-03T09:00:00Z,1517648400,2018,9,0,34.375,34.375,-72.4896,-117.5588,984.1,-1.57,-999.0,yes,yes,no,300234063898680,BD2GI,AOML,ARAON,South
2018-02-03T10:00:28Z,1517652029,2018,10,0,34.417,34.417,-72.4954,-117.5674,984.2,-1.77,-999.0,yes,yes,no,300234063898680,BD2GI,AOML,ARAON,South
2018-02-03T10:59:31Z,1517655571,2018,11,0,34.458,34.458,-72.4976,-117.5818,983.8,-1.7,-999.0,yes,yes,no,300234063898680,BD2GI,AOML,ARAON,South
2018-02-03T12:00:00Z,1517659200,2018,12,0,34.5,34.5,-72.4986,-117.5926,983.2,-4.65,-999.0,yes,yes,no,300234063898680,BD2GI,AOML,ARAON,South
2018-02-03T13:00:28Z,1517662829,2018,13,0,34.542,34.542,-72.4992,-117.6,982.5,-0.78,-999.0,yes,yes,no,300234063898680,BD2GI,AOML,ARAON,South
2018-02-03T13:59:31Z,1517666371,2018,14,0,34.583,34.583,-72.4984,-117.6024,981.8,-4.71,-999.0,yes,yes,no,300234063898680,BD2GI,AOML,ARAON,South
2018-02-03T15:00:00Z,1517670000,2018,15,0,34.625,34.625,-72.5016,-117.6066,980.6,-0.78,-999.0,yes,yes,no,300234063898680,BD2GI,AOML,ARAON,South
2018-02-03T16:00:28Z,1517673629,2018,16,0,34.667,34.667,-72.499,-117.6082,980.0,-0.78,-999.0,yes,yes,no,300234063898680,BD2GI,AOML,ARAON,South
2018-02-03T16:59:31Z,1517677171,2018,17,0,34.708,34.708,-72.499,-117.6082,978.7,0.18,-999.0,yes,yes,no,300234063898680,BD2GI,AOML,ARAON,South
2018-02-03T18:00:00Z,1517680800,2018,18,0,34.75,34.75,-72.5026,-117.6092,978.9,5.17,-999.0,yes,yes,no,300234063898680,BD2GI,AOML,ARAON,South
2018-02-03T19:00:28Z,1517684429,2018,19,0,34.792,34.792,-72.5022,-117.6104,978.2,4.83,-999.0,yes,yes,no,300234063898680,BD2GI,AOML,ARAON,South
2018-02-03T19:59:31Z,1517687971,2018,20,0,34.833,34.833,-72.5018,-117.6116,977.5,4.04,-999.0,yes,yes,no,300234063898680,BD2GI,AOML,ARAON,South
2018-02-03T21:00:00Z,1517691600,2018,21,0,34.875,34.875,-72.5018,-117.6116,976.6,6.19,-999.0,yes,yes,no,300234063898680,BD2GI,AOML,ARAON,South
2018-02-03T22:00:28Z,1517695229,2018,22,0,34.917,34.917,-72.5024,-117.6168,976.4,10.85,-999.0,yes,yes,no,300234063898680,BD2GI,AOML,ARAON,South
2018-02-03T22:59:31Z,1517698771,2018,23,0,34.958,34.958,-72.5038,-117.6212,976.1,3.77,-999.0,yes,yes,no,300234063898680,BD2GI,AOML,ARAON,South
2018-02-04T00:00:00Z,1517702400,2018,0,0,35.0,35.0,-72.5038,-117.6212,974.8,-1.16,-999.0,yes,yes,no,300234063898680,BD2GI,AOML,ARAON,South
2018-02-04T01:00:28Z,1517706029,2018,1,0,35.042,35.042,-72.5094,-117.6394,974.9,-1.57,-999.0,yes,yes,no,300234063898680,BD2GI,AOML,ARAON,South
2018-02-04T01:59:31Z,1517709571,2018,2,0,35.083,35.083,-72.5138,-117.6524,974.2,-2.01,-999.0,yes,yes,no,300234063898680,BD2GI,AOML,ARAON,South
2018-02-04T03:00:00Z,1517713200,2018,3,0,35.125,35.125,-72.518,-117.6572,974.2,-2.32,-999.0,yes,yes,no,300234063898680,BD2GI,AOML,ARAON,South
2018-02-04T04:00:28Z,1517716829,2018,4,0,35.167,35.167,-72.5218,-117.6618,973.8,-1.6,-999.0,yes,yes,no,300234063898680,BD2GI,AOML,ARAON,South
2018-02-04T04:59:31Z,1517720371,2018,5,0,35.208,35.208,-72.5218,-117.6618,972.5,-1.67,-999.0,yes,yes,no,300234063898680,BD2GI,AOML,ARAON,South
2018-02-04T06:00:00Z,1517724000,2018,6,0,35.25,35.25,-72.5272,-117.6638,972.8,-1.74,-999.0,yes,yes,no,300234063898680,BD2GI,AOML,ARAON,South
2018-02-04T07:00:28Z,1517727629,2018,7,0,35.292,35.292,-72.5284,-117.6626,972.0,-1.64,-999.0,yes,yes,no,300234063898680,BD2GI,AOML,ARAON,South
2018-02-04T07:59:31Z,1517731171,2018,8,0,35.333,35.333,-72.5284,-117.6626,971.3,-1.64,-999.0,yes,yes,no,300234063898680,BD2GI,AOML,ARAON,South
2018-02-04T09:00:00Z,1517734800,2018,9,0,35.375,35.375,-72.5284,-117.6626,970.7,-1.6,-999.0,yes,yes,no,300234063898680,BD2GI,AOML,ARAON,South
2018-02-04T10:00:28Z,1517738429,2018,10,0,35.417,35.417,-72.5284,-117.6626,970.6,-1.6,-999.0,yes,yes,no,300234063898680,BD2GI,AOML,ARAON,South
2018-02-04T10:59:31Z,1517741971,2018,11,0,35.458,35.458,-72.5284,-117.6626,970.6,-1.6,-999.0,yes,yes,no,300234063898680,BD2GI,AOML,ARAON,South
2018-02-04T12:00:00Z,1517745600,2018,12,0,35.5,35.5,-72.5358,-117.7138,971.4,-1.6,-999.0,yes,yes,no,300234063898680,BD2GI,AOML,ARAON,South
2018-02-04T13:00:28Z,1517749229,2018,13,0,35.542,35.542,-72.5402,-117.7218,971.4,-1.6,-999.0,yes,yes,no,300234063898680,BD2GI,AOML,ARAON,South
2018-02-04T13:59:31Z,1517752771,2018,14,0,35.583,35.583,-72.5402,-117.7218,971.6,-1.6,-999.0,yes,yes,no,300234063898680,BD2GI,AOML,ARAON,South
2018-02-04T15:00:00Z,1517756400,2018,15,0,35.625,35.625,-72.5402,-117.7218,971.7,-1.6,-999.0,yes,yes,no,300234063898680,BD2GI,AOML,ARAON,South
2018-02-04T16:00:28Z,1517760029,2018,16,0,35.667,35.667,-72.5508,-117.7268,972.2,-1.57,-999.0,yes,yes,no,300234063898680,BD2GI,AOML,ARAON,South
2018-02-04T16:59:31Z,1517763571,2018,17,0,35.708,35.708,-72.5518,-117.7236,972.4,-1.57,-999.0,yes,yes,no,300234063898680,BD2GI,AOML,ARAON,South
2018-02-04T18:00:00Z,1517767200,2018,18,0,35.75,35.75,-72.5514,-117.7228,972.3,-1.6,-999.0,yes,yes,no,300234063898680,BD2GI,AOML,ARAON,South
2018-02-04T19:00:28Z,1517770829,2018,19,0,35.792,35.792,-72.5502,-117.7236,973.3,-1.57,-999.0,yes,yes,no,300234063898680,BD2GI,AOML,ARAON,South
2018-02-04T21:00:00Z,1517778000,2018,21,0,35.875,35.875,-72.5462,-117.7442,974.3,-1.53,-999.0,yes,yes,no,300234063898680,BD2GI,AOML,ARAON,South
2018-02-04T22:00:28Z,1517781629,2018,22,0,35.917,35.917,-72.5452,-117.7632,974.9,-1.64,-999.0,yes,yes,no,300234063898680,BD2GI,AOML,ARAON,South
2018-02-04T22:59:31Z,1517785171,2018,23,0,35.958,35.958,-72.5456,-117.782,975.7,-1.64,-999.0,yes,yes,no,300234063898680,BD2GI,AOML,ARAON,South
2018-02-05T00:00:00Z,1517788800,2018,0,0,36.0,36.0,-72.547,-117.8052,976.6,-1.6,-999.0,yes,yes,no,300234063898680,BD2GI,AOML,ARAON,South
2018-02-05T01:00:28Z,1517792429,2018,1,0,36.042,36.042,-72.549,-117.829,977.3,-1.64,-999.0,yes,yes,no,300234063898680,BD2GI,AOML,ARAON,South
2018-02-05T01:59:31Z,1517795971,2018,2,0,36.083,36.083,-72.5508,-117.8488,977.7,-1.64,-999.0,yes,yes,no,300234063898680,BD2GI,AOML,ARAON,South
2018-02-05T03:00:00Z,1517799600,2018,3,0,36.125,36.125,-72.5522,-117.8672,978.3,-1.77,-999.0,yes,yes,no,300234063898680,BD2GI,AOML,ARAON,South
2018-02-05T04:00:28Z,1517803229,2018,4,0,36.167,36.167,-72.5526,-117.8824,978.8,-2.29,-999.0,yes,yes,no,300234063898680,BD2GI,AOML,ARAON,South
2018-02-05T04:59:31Z,1517806771,2018,5,0,36.208,36.208,-72.5518,-117.897,979.7,-2.25,-999.0,yes,yes,no,300234063898680,BD2GI,AOML,ARAON,South
2018-02-05T06:00:00Z,1517810400,2018,6,0,36.25,36.25,-72.55,-117.9086,980.5,-2.25,-999.0,yes,yes,no,300234063898680,BD2GI,AOML,ARAON,South
2018-02-05T07:00:28Z,1517814029,2018,7,0,36.292,36.292,-72.5476,-117.9176,981.1,-1.64,-999.0,yes,yes,no,300234063898680,BD2GI,AOML,ARAON,South
2018-02-05T07:59:31Z,1517817571,2018,8,0,36.333,36.333,-72.5444,-117.9282,981.7,-1.64,-999.0,yes,yes,no,300234063898680,BD2GI,AOML,ARAON,South
2018-02-05T09:00:00Z,1517821200,2018,9,0,36.375,36.375,-72.541,-117.939,982.0,-1.67,-999.0,yes,yes,no,300234063898680,BD2GI,AOML,ARAON,South
2018-02-05T10:00:28Z,1517824829,2018,10,0,36.417,36.417,-72.5384,-117.95,982.7,-1.7,-999.0,yes,yes,no,300234063898680,BD2GI,AOML,ARAON,South
2018-02-05T10:59:31Z,1517828371,2018,11,0,36.458,36.458,-72.5362,-117.96,983.1,-1.7,-999.0,yes,yes,no,300234063898680,BD2GI,AOML,ARAON,South
2018-02-05T12:00:00Z,1517832000,2018,12,0,36.5,36.5,-72.5346,-117.967,983.7,-1.7,-999.0,yes,yes,no,300234063898680,BD2GI,AOML,ARAON,South
2018-02-05T13:00:28Z,1517835629,2018,13,0,36.542,36.542,-72.532,-117.9736,983.8,-1.7,-999.0,yes,yes,no,300234063898680,BD2GI,AOML,ARAON,South
2018-02-05T13:59:31Z,1517839171,2018,14,0,36.583,36.583,-72.5286,-117.9768,984.5,-1.67,-999.0,yes,yes,no,300234063898680,BD2GI,AOML,ARAON,South